Location: Hobi?a Gr?di?te
(45.4833°N, 22.7833°E)
Time: 11:56:56
(UTC+00:00)

Timation 2 Rocket - Pass Details

Date: 28 January 2023
Orbit: 905 x 1075 km, 70.0° (Epoch: 20 March)

Event Time Altitude Azimuth Distance (km) Brightness Sun altitude
Rises 17:05:38 0° 332° (NNW) 3,589 7.2 -16.9°
Reaches altitude 10° 17:08:07 10° 334° (NNW) 2,661 6.5 -17.4°
Maximum altitude 17:14:19 81° 62° (ENE) 983 3.9 -18.4°
Drops below altitude 10° 17:20:45 10° 150° (SSE) 2,761 6.1 -19.5°
Sets 17:23:22 0° 151° (SSE) 3,732 6.8 -20.0°
